TimeEDT,TemperatureF,Dew PointF,Humidity,Sea Level PressureIn,VisibilityMPH,Wind Direction,Wind SpeedMPH,Gust SpeedMPH,PrecipitationIn,Events,Conditions,WindDirDegrees,DateUTC
12:53 AM,52.0,43.0,71,30.43,10.0,Calm,Calm,-,N/A,,Clear,0,2013-05-02 04:53:00
1:53 AM,48.9,42.1,77,30.42,10.0,Calm,Calm,-,N/A,,Clear,0,2013-05-02 05:53:00
2:53 AM,46.0,41.0,83,30.41,10.0,Calm,Calm,-,N/A,,Clear,0,2013-05-02 06:53:00
3:53 AM,46.0,41.0,83,30.42,10.0,NNE,3.5,-,N/A,,Clear,30,2013-05-02 07:53:00
4:53 AM,43.0,39.9,89,30.41,10.0,Calm,Calm,-,N/A,,Clear,0,2013-05-02 08:53:00
5:53 AM,39.9,37.0,89,30.41,9.0,Calm,Calm,-,N/A,,Clear,0,2013-05-02 09:53:00
6:53 AM,41.0,39.9,96,30.42,9.0,Calm,Calm,-,N/A,,Clear,0,2013-05-02 10:53:00
7:53 AM,50.0,44.1,80,30.43,10.0,NNE,4.6,-,N/A,,Clear,20,2013-05-02 11:53:00
8:53 AM,54.0,44.1,69,30.44,10.0,Calm,Calm,-,N/A,,Clear,0,2013-05-02 12:53:00
9:53 AM,57.0,43.0,59,30.43,10.0,NE,4.6,-,N/A,,Clear,40,2013-05-02 13:53:00
10:53 AM,60.1,44.1,55,30.43,10.0,Variable,4.6,-,N/A,,Clear,0,2013-05-02 14:53:00
11:53 AM,63.0,43.0,48,30.42,10.0,ENE,8.1,-,N/A,,Clear,60,2013-05-02 15:53:00
12:53 PM,64.0,42.1,45,30.40,10.0,Variable,5.8,-,N/A,,Clear,0,2013-05-02 16:53:00
1:53 PM,66.0,39.9,38,30.40,10.0,Variable,3.5,-,N/A,,Clear,0,2013-05-02 17:53:00
2:53 PM,68.0,44.1,42,30.38,10.0,Variable,5.8,-,N/A,,Clear,0,2013-05-02 18:53:00
3:53 PM,70.0,41.0,35,30.36,10.0,East,8.1,-,N/A,,Clear,90,2013-05-02 19:53:00
4:53 PM,70.0,42.1,36,30.34,10.0,SSE,4.6,-,N/A,,Clear,160,2013-05-02 20:53:00
5:53 PM,70.0,41.0,35,30.33,10.0,ESE,5.8,-,N/A,,Clear,110,2013-05-02 21:53:00
6:53 PM,68.0,37.9,33,30.32,10.0,East,4.6,-,N/A,,Clear,100,2013-05-02 22:53:00
7:53 PM,64.0,39.0,40,30.32,10.0,ESE,3.5,-,N/A,,Clear,120,2013-05-02 23:53:00
8:53 PM,60.1,41.0,49,30.33,10.0,Calm,Calm,-,N/A,,Clear,0,2013-05-03 00:53:00
9:53 PM,57.0,42.1,57,30.33,10.0,Calm,Calm,-,N/A,,Clear,0,2013-05-03 01:53:00
10:53 PM,52.0,43.0,71,30.32,10.0,Calm,Calm,-,N/A,,Clear,0,2013-05-03 02:53:00
11:53 PM,50.0,43.0,77,30.32,10.0,Calm,Calm,-,N/A,,Clear,0,2013-05-03 03:53:00